Theta_e
313 312 312 312 313 313 312 312 312 313 313 313 313 312 312 312 311 311 310 310 310 309 309 308 308 308 307 307 307 307 307 308 309 309 309 308 308 309 308 308 307 307 308 308 308 308 306 305 304 304 305 304 305 305 304 304 304 303 304 304 303 304 303 301 299 299 302 305 305 305 307 308 307 309 309 310 311 314 315 316 317 322 329 332 331
312 312 312 312 312 312 312 313 313 313 313 312 312 311 311 310 311 310 310 309 309 308 308 309 308 307 306 306 306 306 307 307 308 308 307 307 308 308 307 307 307 307 307 305 306 306 307 305 303 303 304 303 304 303 302 302 301 301 301 302 301 302 303 300 299 298 297 301 302 305 305 307 305 308 308 309 310 311 312 315 317 318 317 331 333
312 312 312 312 311 312 312 312 312 313 312 311 310 310 310 310 310 309 308 308 309 308 308 308 308 307 306 305 305 305 306 306 307 307 307 307 306 307 307 307 306 306 305 305 305 306 305 304 303 303 303 302 303 302 303 301 301 300 301 301 301 301 302 302 299 297 297 298 301 301 304 305 305 305 307 308 310 311 310 312 314 317 318 322 334
312 311 311 311 312 312 312 312 312 311 311 310 310 310 309 309 309 309 309 309 307 309 308 307 307 307 306 305 304 304 304 305 306 307 307 307 306 306 306 307 306 306 305 305 305 304 304 303 303 302 302 301 301 300 300 300 300 300 300 300 300 300 301 302 301 299 298 297 300 301 302 303 304 305 307 308 308 309 310 311 312 314 315 318 326
312 311 311 311 311 311 311 311 310 310 310 310 310 310 310 309 309 308 308 308 308 308 307 307 306 306 305 304 304 303 303 304 304 305 307 307 307 307 306 306 306 305 306 305 305 304 303 302 301 301 301 300 299 299 299 299 299 299 299 299 299 300 300 300 300 299 298 297 298 300 302 302 304 305 305 305 306 307 309 309 310 311 313 316 317
312 312 311 310 310 310 310 310 309 309 309 310 310 309 310 309 309 308 308 308 308 307 307 307 306 304 304 304 303 302 302 303 303 304 306 307 307 307 307 306 306 305 305 305 304 304 303 302 302 301 300 299 299 299 299 299 299 299 299 298 299 299 299 299 299 298 298 297 297 297 300 300 301 302 304 304 305 304 305 307 310 312 314 317 318
311 311 310 309 309 309 309 309 309 309 309 309 309 309 309 309 308 307 307 307 307 307 306 306 306 305 303 303 302 302 301 301 301 302 304 306 306 306 306 305 305 305 304 304 303 304 303 302 302 301 300 300 299 299 299 299 298 298 299 299 299 298 297 297 297 297 297 296 296 297 297 299 300 299 302 304 304 304 304 305 305 308 308 309 309
310 310 310 309 308 308 309 309 309 309 309 308 308 308 308 308 308 308 308 307 307 306 306 306 306 305 304 302 302 302 300 299 299 300 302 304 306 306 306 305 305 304 304 304 304 303 303 302 302 301 301 300 299 300 299 298 298 298 298 298 298 297 296 296 296 296 296 296 295 295 296 296 298 300 301 301 300 301 303 302 300 302 304 307 308
309 309 308 308 307 307 307 308 308 308 307 308 307 307 307 307 307 307 307 307 307 307 307 306 305 304 303 302 301 300 299 299 298 298 299 300 303 305 305 304 304 303 303 303 303 302 302 302 302 302 302 301 301 300 299 298 297 297 298 298 297 296 296 296 296 295 295 295 294 296 295 295 296 297 296 297 297 297 300 301 300 301 303 304 306
308 308 307 307 307 306 306 307 306 307 306 306 306 307 306 307 307 306 306 307 307 306 306 306 305 304 303 301 301 300 298 299 296 293 294 297 301 304 305 304 303 303 302 302 302 302 302 302 302 303 302 301 300 297 296 296 297 297 297 297 297 296 296 296 295 295 295 294 294 294 293 293 294 296 296 297 298 299 298 299 297 299 300 300 302
307 306 304 305 305 305 305 305 305 305 305 306 306 306 306 307 306 306 307 307 306 306 306 305 304 303 302 301 300 299 298 297 292 291 292 292 298 302 304 303 303 302 302 301 301 301 301 301 302 302 301 300 299 296 295 295 294 294 295 296 297 298 297 295 295 295 294 294 294 294 293 293 294 296 296 296 297 297 297 297 296 296 296 295 295
305 304 304 304 304 304 303 304 304 304 305 304 305 305 305 305 306 306 306 306 306 306 305 305 304 303 302 301 300 298 298 294 291 292 291 291 293 298 304 304 303 302 302 301 301 301 300 300 300 301 300 300 299 297 296 295 294 294 294 294 295 295 295 297 296 295 295 294 293 293 293 293 293 294 294 295 295 295 295 295 295 294 294 294 295
304 303 303 303 303 304 303 303 304 304 304 304 305 305 304 304 305 305 305 305 305 305 305 305 304 304 302 300 299 298 297 293 291 291 291 291 291 295 303 304 303 302 302 301 301 300 300 299 299 300 299 300 298 296 296 296 296 295 296 297 297 296 293 293 294 298 297 294 293 292 293 293 292 293 295 295 295 293 293 293 294 294 295 295 295
303 302 303 302 303 303 303 303 303 303 304 304 304 304 304 304 305 305 305 305 305 305 305 304 304 303 303 301 300 298 297 294 291 291 291 290 291 292 303 303 303 302 302 301 301 301 300 299 298 298 298 299 297 295 295 295 296 298 299 299 298 298 296 295 295 294 296 296 294 293 294 295 293 294 296 296 294 292 292 292 293 293 294 294 297
303 302 302 302 302 302 302 302 302 303 303 303 303 303 304 305 305 305 305 304 304 303 303 303 304 304 303 302 301 298 297 291 291 290 291 291 290 294 305 304 303 303 302 302 301 301 301 300 299 297 297 298 296 294 294 294 295 297 298 297 297 298 298 299 299 298 297 297 296 296 296 296 295 295 296 296 295 294 294 293 293 294 295 296 297
302 302 301 302 302 302 302 302 302 302 302 303 303 303 304 304 304 303 303 303 304 304 303 303 303 304 304 303 301 298 297 290 291 291 291 290 291 302 302 303 302 302 301 301 301 301 301 300 299 297 297 297 295 291 292 294 295 297 296 297 297 297 298 298 296 295 298 298 298 297 297 296 295 295 295 295 295 295 295 295 295 294 294 293 293
301 301 301 302 302 302 302 301 301 301 302 302 302 303 303 303 303 304 303 303 302 302 302 302 302 302 303 303 302 299 298 293 290 291 291 290 294 302 301 301 301 301 301 300 301 301 301 300 299 297 296 296 294 290 290 292 295 295 296 296 296 296 296 298 296 295 294 294 293 293 293 292 293 293 293 293 294 295 294 293 292 293 292 291 293
301 301 301 301 302 302 302 301 301 301 301 301 303 303 304 304 304 304 303 302 302 302 302 302 302 301 301 301 302 301 298 294 290 291 291 290 294 300 300 299 301 301 300 300 301 300 300 297 298 296 295 295 292 290 290 293 295 294 295 295 294 294 295 296 297 298 296 295 294 294 294 293 293 294 294 294 294 294 294 291 293 293 292 293 292
301 301 301 302 302 302 302 302 301 301 301 301 303 302 303 303 303 304 303 303 303 302 302 302 302 302 301 300 300 301 300 297 291 291 291 291 294 300 299 298 299 299 300 298 300 300 299 300 297 295 295 294 290 290 290 292 295 295 295 294 293 293 294 295 294 295 296 296 295 295 295 296 297 296 296 294 294 296 296 294 295 294 292 292 293
302 302 302 302 302 302 302 302 302 302 301 302 303 302 303 304 304 303 303 302 301 301 301 301 301 302 302 302 300 300 300 299 295 291 291 292 291 297 299 297 296 297 299 298 298 299 298 298 297 292 290 291 290 290 290 290 294 295 296 294 293 292 295 294 295 295 296 296 295 294 294 295 295 295 295 295 295 297 295 296 295 294 293 293 293
302 302 302 302 302 302 302 302 302 302 303 302 303 303 303 303 303 302 301 302 301 301 301 302 301 301 302 303 302 301 301 300 298 291 292 292 291 293 298 297 296 296 298 298 298 298 298 298 299 295 291 291 290 290 290 290 291 295 296 294 294 295 293 294 295 296 296 296 295 294 294 294 294 294 294 294 295 295 295 295 296 295 294 293 293
302 302 302 302 302 302 302 303 303 303 303 303 302 302 303 303 302 301 301 302 302 302 302 301 301 301 302 302 303 303 301 300 300 293 292 292 292 291 296 297 295 296 297 298 298 297 298 298 298 295 291 291 290 290 290 290 290 296 297 291 290 289 293 295 296 295 295 294 294 293 293 293 293 293 293 293 294 295 295 295 295 296 296 297 296
302 302 302 302 302 302 302 303 303 303 303 303 302 302 303 303 302 302 302 302 301 301 301 301 301 300 301 301 302 302 303 299 294 297 293 291 291 291 290 294 292 297 296 296 297 297 298 299 298 295 291 291 290 290 290 290 292 296 291 290 290 289 292 296 295 295 293 293 293 292 292 292 291 291 291 292 293 294 294 295 295 296 296 298 299
302 301 302 302 302 302 302 303 303 303 303 302 302 301 301 302 302 303 303 302 301 300 300 301 300 299 299 299 301 300 301 301 295 292 295 292 291 291 290 290 290 296 297 297 298 297 297 298 297 292 290 290 290 290 290 290 295 291 290 290 289 292 296 295 294 294 293 293 292 292 291 291 291 291 291 293 293 294 294 295 295 295 296 297 299
302 301 301 301 301 301 302 302 302 302 303 303 302 301 302 302 301 302 302 301 300 299 299 300 299 299 298 299 299 299 300 299 299 295 292 292 291 291 290 289 289 289 297 297 298 297 294 291 290 290 290 290 290 291 292 293 292 291 290 290 294 296 295 294 293 293 292 291 292 292 291 291 292 292 293 294 294 295 294 294 295 295 295 296 300
301 301 300 300 300 300 301 301 302 303 303 302 302 302 302 301 301 301 301 300 300 300 298 298 298 299 299 299 299 299 300 299 298 298 296 295 293 292 291 291 292 292 293 297 291 291 291 291 291 291 292 294 297 296 296 297 292 291 291 294 296 295 295 294 293 292 292 291 291 291 291 293 293 293 294 294 294 293 293 293 293 292 292 292 295
301 300 299 299 300 300 301 301 301 302 303 303 303 303 302 302 302 300 300 300 300 299 299 298 298 298 298 298 299 299 299 297 296 296 297 296 295 296 296 296 293 293 296 297 295 296 296 296 296 293 293 292 292 292 293 294 296 296 296 296 296 296 295 294 293 292 292 292 291 292 292 293 294 293 293 293 293 293 294 293 292 292 290 290 291
299 299 299 300 300 301 300 294 298 301 302 302 301 301 302 303 302 302 301 301 300 299 299 298 298 299 298 298 298 298 297 297 296 295 295 294 294 294 295 295 295 295 295 296 295 296 297 294 295 299 298 297 296 296 296 296 295 295 295 295 295 296 294 294 294 294 294 293 293 292 292 292 292 292 293 293 293 294 294 293 291 291 290 289 288
300 300 300 300 300 301 301 300 301 301 301 302 302 302 302 303 302 301 302 301 300 301 302 299 299 301 300 297 297 298 297 296 296 292 295 290 291 294 294 294 294 294 294 291 294 295 297 297 296 296 296 293 293 294 294 295 295 295 296 296 296 295 294 294 293 292 293 292 292 292 291 292 291 292 293 293 293 294 294 293 292 291 290 289 287
300 300 300 300 301 301 300 299 301 300 301 301 302 302 291 290 297 302 298 291 288 289 291 298 298 300 301 300 298 296 296 296 290 288 289 289 289 288 289 289 288 291 290 288 291 293 295 294 294 294 293 294 293 292 292 293 293 293 294 292 294 294 294 293 293 293 293 292 292 291 291 291 292 292 293 292 293 294 293 291 292 292 290 287 287
300 300 299 300 299 300 299 300 302 301 301 301 302 298 299 299 289 290 293 293 293 290 289 288 287 287 295 299 298 291 292 290 288 289 288 289 288 288 288 289 289 288 288 290 291 292 293 293 293 293 293 294 292 292 292 292 292 292 292 293 294 292 291 293 293 292 291 291 292 292 291 292 292 292 292 292 292 293 293 293 293 291 290 288 287
299 299 300 300 300 300 300 300 302 302 301 301 301 300 297 297 297 291 290 291 290 289 289 289 289 288 285 290 295 299 291 288 288 289 289 288 289 288 289 288 289 288 288 288 290 293 294 293 292 293 293 292 292 292 293 292 292 292 291 291 292 293 292 292 292 293 292 292 291 291 291 292 291 291 292 291 291 292 292 291 291 290 290 289 288
301 301 301 301 299 299 300 301 301 302 302 301 302 302 300 299 297 296 295 290 289 290 289 290 289 288 287 286 285 288 290 290 289 288 289 289 289 289 289 288 289 289 289 291 293 293 294 295 294 294 293 292 293 293 293 293 292 292 292 291 291 292 293 293 292 293 291 292 291 292 292 292 292 291 291 292 291 291 291 291 291 291 290 289 288
302 301 301 301 299 301 302 303 302 302 303 302 302 301 301 302 301 299 297 296 295 291 290 289 289 289 288 288 288 287 287 288 289 289 289 288 288 289 289 291 290 289 289 293 295 294 295 295 294 294 294 294 293 293 292 293 293 293 292 293 293 294 293 294 293 292 291 292 292 291 291 293 292 292 292 292 292 292 291 291 291 290 289 289 288
303 297 293 296 302 301 303 303 303 302 302 302 301 300 301 300 301 301 300 298 297 296 297 297 292 289 294 291 289 287 288 288 288 289 289 288 288 289 289 294 295 297 299 300 297 295 295 295 294 294 294 294 293 293 293 294 293 293 292 293 293 293 293 292 291 292 291 292 292 292 291 292 293 292 292 292 292 291 291 292 292 292 291 290 289
303 303 302 301 302 302 302 303 303 303 302 302 302 300 302 299 299 299 298 298 299 299 299 300 299 293 289 291 291 289 288 288 289 289 289 289 289 288 292 293 295 296 294 296 296 295 295 296 295 295 295 294 295 294 294 293 293 293 293 293 292 292 292 292 291 290 291 291 291 291 291 291 293 292 293 292 293 292 292 292 292 291 291 291 290
303 303 302 302 303 304 303 303 303 303 298 299 300 301 300 300 298 299 299 299 299 298 300 301 301 299 293 296 293 290 289 289 289 289 289 289 288 291 295 296 297 296 296 296 296 295 296 296 296 295 295 294 294 294 294 294 293 294 292 293 293 292 291 291 291 290 290 290 291 292 291 291 292 292 292 292 292 292 292 292 292 291 291 290 289
303 303 303 302 303 303 304 303 302 296 299 300 301 301 300 301 300 298 298 300 299 297 298 299 296 299 297 297 298 296 296 290 289 289 290 290 291 294 295 297 297 296 297 296 296 296 296 296 296 296 296 295 295 295 294 294 293 293 293 293 292 292 291 292 290 291 290 291 291 291 291 291 291 292 292 292 292 292 292 292 292 292 292 291 291
303 297 293 293 295 302 303 302 301 300 301 300 300 300 297 299 299 298 299 299 299 298 296 298 299 298 299 300 299 299 296 297 295 294 295 296 297 298 297 298 297 297 296 297 297 296 297 296 295 296 296 295 295 295 294 294 293 293 293 292 291 291 291 291 291 290 290 290 291 291 291 291 291 292 292 292 292 292 292 293 292 292 292 292 292
302 302 297 293 299 299 300 299 301 300 298 299 299 300 299 298 300 299 299 299 300 298 300 298 298 300 300 301 300 300 299 298 296 295 295 293 295 297 297 298 298 297 297 297 298 297 296 296 296 296 296 296 295 295 295 295 294 293 293 291 291 290 290 291 290 290 290 290 291 291 291 291 291 291 292 292 292 292 292 292 293 293 293 292 292
302 302 296 296 297 300 299 300 301 301 301 299 299 300 299 299 300 297 299 299 298 297 298 298 299 300 300 296 290 292 298 296 295 296 296 296 295 297 297 298 298 298 298 297 297 298 297 297 296 296 296 295 295 295 296 295 294 292 292 292 291 291 291 290 290 290 290 290 290 291 291 291 291 290 290 291 291 292 292 292 293 293 293 293 293
302 302 302 300 299 300 299 299 300 298 300 300 300 299 298 298 300 300 297 297 296 297 300 299 300 300 296 288 290 291 296 296 295 296 297 299 298 298 298 298 299 299 299 299 298 298 297 297 296 295 294 293 293 294 294 295 294 293 293 292 291 291 290 290 290 290 290 290 290 291 291 291 290 290 290 290 291 292 292 292 292 293 293 293 293
303 302 303 301 300 299 298 299 300 301 300 300 299 295 297 299 300 298 299 297 297 297 297 298 299 299 298 289 290 288 298 297 293 295 295 296 297 297 297 298 299 300 300 300 299 299 298 296 295 295 295 295 296 293 294 293 294 294 293 292 292 291 290 290 290 290 290 290 290 290 291 291 291 290 289 290 291 291 292 292 292 292 293 293 293
303 302 301 300 300 299 298 299 300 299 300 297 299 298 298 299 299 300 300 300 298 298 298 298 298 298 300 295 294 295 298 298 297 296 297 296 298 298 299 299 298 299 300 299 299 299 294 295 295 295 297 297 297 297 296 295 295 294 293 293 292 291 291 290 290 290 290 290 290 291 290 291 290 291 289 290 290 290 291 291 291 291 292 293 293
304 303 301 301 301 299 298 298 299 299 299 299 300 300 298 299 300 299 299 299 297 299 298 298 298 299 297 299 298 298 299 299 296 295 296 297 297 298 298 299 298 299 298 297 298 300 297 296 295 294 293 293 296 297 296 296 298 296 294 294 292 292 291 290 290 291 291 290 290 291 291 290 290 291 290 290 290 290 290 290 291 289 291 291 292
303 302 301 301 300 299 299 300 297 300 300 299 299 299 300 300 300 299 299 298 299 299 299 298 298 298 297 299 299 297 299 299 299 299 297 297 298 298 299 299 298 299 298 298 296 295 296 296 296 295 294 294 294 295 296 297 297 297 298 297 295 293 293 292 291 291 291 290 291 291 291 290 290 290 289 290 290 290 290 290 291 291 291 291 291
304 303 302 302 301 300 299 301 300 299 300 299 299 299 300 300 300 299 297 297 298 298 298 298 299 299 299 299 299 298 298 298 298 298 298 299 299 299 298 299 298 299 298 299 298 297 295 295 296 295 294 295 294 297 296 296 297 297 297 297 297 295 294 292 292 292 291 291 291 291 291 290 290 290 290 290 290 289 289 289 290 290 290 291 291
303 302 302 301 301 300 301 301 300 296 300 299 300 299 299 299 299 299 300 299 298 298 298 298 299 299 298 299 300 300 300 300 299 300 299 299 299 299 300 299 297 298 298 298 295 297 297 296 296 296 295 295 294 295 296 297 297 297 297 298 297 295 292 290 292 293 292 291 291 291 291 291 290 290 290 290 290 290 289 289 289 290 290 290 290
302 302 302 301 300 300 300 300 299 300 300 300 299 300 299 300 299 300 299 300 300 299 300 299 299 299 298 299 300 299 299 298 300 300 299 299 299 300 299 299 296 296 298 298 298 297 297 297 297 296 295 295 296 296 294 297 296 297 297 297 292 285 285 286 289 292 290 290 291 291 291 291 290 290 290 290 290 290 290 289 289 289 290 290 290
302 301 301 300 300 300 300 300 300 301 300 300 300 300 299 300 299 299 299 299 299 299 300 300 299 300 300 299 299 299 299 299 300 300 300 300 300 300 299 300 300 298 297 298 298 296 297 297 297 296 296 297 296 295 296 296 296 296 297 297 287 286 287 284 285 286 289 291 291 291 292 291 290 290 290 291 290 290 289 289 289 289 290 290 290
299 300 300 300 301 300 300 300 300 301 301 301 301 300 299 300 299 299 299 299 299 299 299 300 301 300 300 300 299 300 300 300 300 301 300 300 300 300 300 300 299 299 297 298 298 297 298 297 298 297 297 296 296 297 297 296 296 295 293 289 286 287 285 286 290 287 286 287 290 290 291 291 290 290 290 290 290 290 289 289 289 290 289 290 289
Wind_Speed
9 8 8 8 9 10 10 10 10 10 10 9 9 9 8 8 7 7 6 7 6 7 7 8 8 8 8 8 8 8 8 8 7 7 7 7 7 7 8 8 9 8 8 8 8 8 9 9 10 10 10 10 10 9 9 10 11 10 10 10 10 10 11 11 13 15 14 13 13 14 16 17 16 15 17 16 16 15 16 15 17 13 9 8 9
9 9 8 8 9 10 10 9 9 9 10 9 9 8 8 7 7 7 7 7 7 7 8 7 7 8 8 9 8 9 8 9 8 7 8 8 7 6 7 8 8 8 7 9 9 7 8 9 10 10 10 11 11 11 11 11 12 12 11 11 11 11 11 12 13 13 17 15 15 13 16 16 16 15 15 17 17 17 18 16 15 15 14 8 7
9 8 9 9 10 9 9 9 9 10 10 9 9 8 8 7 7 7 7 7 7 7 7 8 8 8 9 9 9 9 9 8 8 8 8 8 8 8 7 8 8 8 8 9 9 8 9 9 10 11 10 11 11 10 11 12 12 12 12 11 12 12 12 12 13 14 16 16 16 16 14 15 16 17 17 15 15 16 18 16 15 14 13 12 7
9 9 9 10 10 10 10 9 9 9 9 8 9 8 8 7 7 7 7 6 7 6 7 8 8 9 9 9 10 10 9 9 8 8 8 8 8 8 8 8 7 8 8 8 9 9 9 9 10 11 11 11 11 11 11 12 13 12 13 12 13 13 13 13 13 13 14 16 15 16 15 16 16 17 16 16 16 15 15 16 17 16 16 15 12
10 9 10 10 10 9 10 9 10 10 9 8 9 8 8 7 7 7 7 7 7 6 6 7 8 8 8 10 10 10 10 10 9 9 8 7 8 7 8 7 8 8 8 8 9 9 9 9 10 11 11 11 12 12 12 15 13 13 13 13 13 12 12 13 14 13 14 16 16 15 16 15 15 16 17 17 16 16 15 15 16 17 17 15 14
10 10 10 10 10 10 10 10 10 10 9 9 8 8 7 7 6 6 7 7 7 7 7 7 8 9 10 10 10 10 11 10 10 9 8 7 7 7 7 7 8 8 9 9 9 9 8 9 10 11 12 12 13 13 14 15 14 14 15 14 14 13 13 14 13 14 14 14 15 16 15 16 16 14 16 17 17 17 17 16 15 15 14 14 13
10 10 10 10 9 9 9 9 8 8 8 8 7 7 7 7 7 7 6 6 7 7 7 8 8 9 10 10 10 11 11 11 11 10 9 9 8 8 8 8 8 8 9 9 9 9 9 9 10 11 12 12 13 14 15 15 14 16 15 15 14 15 14 14 14 15 15 15 15 14 15 14 15 16 15 16 18 16 16 16 15 14 15 16 15
10 10 10 9 9 9 9 8 8 8 7 7 7 7 7 7 6 6 6 7 7 7 7 8 8 9 9 10 10 10 11 11 11 11 10 10 8 8 8 8 8 8 8 7 7 8 9 9 10 11 12 12 13 13 13 13 13 14 14 14 15 15 15 15 14 15 14 15 14 15 14 15 14 14 14 16 16 14 12 14 17 16 16 15 15
10 10 10 10 9 9 8 8 7 8 8 8 7 7 7 6 6 6 6 7 6 7 7 8 8 9 10 10 10 10 10 10 9 9 10 11 10 7 7 8 8 8 7 8 8 9 9 9 10 11 8 8 10 5 9 11 12 14 14 14 15 15 15 15 15 14 14 14 15 14 15 15 14 15 15 14 15 16 16 15 16 16 16 16 16
11 10 10 9 9 9 8 8 8 8 8 8 7 7 7 6 6 7 7 7 7 6 7 7 8 9 9 10 10 9 10 8 12 16 12 9 10 8 6 7 7 7 8 8 8 9 10 10 10 9 6 11 10 10 14 14 14 13 14 13 15 14 15 16 15 15 16 17 15 16 17 17 16 16 16 16 16 17 17 16 17 16 16 17 16
11 10 11 10 10 9 8 8 8 8 8 7 7 7 7 6 7 7 7 7 7 7 7 8 8 8 9 9 10 10 10 9 15 15 16 15 10 9 6 6 6 7 8 8 8 9 10 10 10 11 13 14 13 14 15 15 14 14 16 16 13 11 11 15 15 16 16 15 16 16 15 18 18 16 16 16 15 17 16 15 16 16 15 16 18
11 11 10 10 10 10 9 9 9 8 8 8 8 7 7 7 7 7 7 7 6 6 7 7 7 7 8 9 10 9 10 12 14 15 16 17 13 10 7 6 5 6 7 8 8 9 9 10 10 9 10 13 13 14 16 17 15 15 16 14 12 11 10 12 14 14 16 17 17 16 16 16 16 15 15 15 16 17 17 17 17 17 17 16 15
11 11 11 10 10 9 9 9 9 8 8 8 7 7 8 8 7 7 7 7 6 7 7 6 6 7 8 9 9 9 10 12 14 14 15 16 17 13 6 5 6 6 7 7 8 8 8 9 10 9 10 13 13 15 15 16 16 17 14 14 15 15 14 15 13 9 14 17 16 17 16 17 18 17 16 18 19 18 18 17 16 16 16 17 17
11 11 11 10 10 10 10 9 9 9 8 8 8 8 8 7 7 6 6 6 7 7 6 7 6 6 7 7 8 9 10 11 13 16 15 17 17 15 4 6 6 6 7 7 7 8 8 9 10 10 11 11 12 15 16 16 15 14 14 14 15 16 16 15 15 15 14 14 16 17 19 18 18 17 21 19 19 20 18 17 17 17 18 18 19
11 11 11 11 10 10 10 10 10 9 9 8 8 8 8 7 7 6 5 5 6 6 6 6 6 6 6 6 7 8 8 12 13 15 15 17 19 16 3 4 5 5 7 7 7 9 8 9 10 10 11 11 11 14 14 16 15 13 15 15 15 15 15 15 16 15 16 15 17 19 19 19 18 21 20 18 21 20 18 19 19 19 20 20 19
12 11 11 11 11 10 10 10 10 10 9 9 9 8 7 7 7 6 6 6 6 6 6 6 6 6 5 6 7 8 9 12 13 15 16 17 19 8 7 5 6 6 7 9 7 7 8 9 8 9 12 11 14 18 16 14 15 14 15 16 16 15 14 14 13 12 13 14 14 16 16 16 18 16 17 16 15 16 18 16 15 16 16 15 17
12 12 11 11 11 11 11 11 10 10 10 9 9 8 8 7 6 6 6 6 6 6 6 6 6 6 5 5 6 7 8 11 12 13 15 18 14 8 7 6 6 7 7 9 8 7 6 8 8 9 11 11 16 19 18 17 15 15 15 16 15 15 15 14 15 16 15 16 18 20 20 20 20 22 23 24 17 14 13 15 16 13 14 15 15
13 12 12 12 11 11 11 11 10 10 9 9 8 7 6 6 6 5 6 6 6 5 6 6 6 6 7 6 5 6 7 9 10 11 14 16 15 10 8 7 7 8 8 9 8 8 8 12 12 10 12 13 17 18 20 17 15 16 16 17 17 17 16 15 13 13 19 19 19 19 20 19 20 21 20 19 20 17 12 15 15 12 13 12 14
13 13 12 12 11 11 10 10 10 10 10 9 8 7 7 6 6 5 5 5 5 5 5 5 5 5 6 6 5 5 6 8 9 9 12 14 13 10 8 8 8 9 9 9 8 7 7 5 11 13 12 15 18 19 21 17 14 15 16 17 18 17 17 16 15 18 20 20 18 17 16 18 18 16 17 20 20 18 13 14 12 11 11 12 14
13 13 12 12 11 10 10 10 10 10 9 8 7 7 6 5 5 4 5 5 5 5 5 5 5 4 4 5 5 5 5 6 7 8 10 10 13 11 8 9 9 10 10 8 8 8 8 9 7 12 16 16 18 19 20 20 14 14 14 15 17 19 18 16 16 16 18 14 14 15 16 15 15 16 15 16 17 17 13 12 12 12 11 11 11
14 13 12 11 11 11 10 10 10 9 8 8 7 6 6 5 5 4 5 4 5 4 4 4 4 4 3 3 4 4 4 4 6 6 7 8 9 10 8 9 10 10 11 9 9 8 8 9 9 12 15 17 17 19 20 20 18 13 13 16 16 19 20 13 15 18 16 15 15 15 14 15 15 15 14 14 13 12 12 12 11 12 13 12 12
13 13 12 12 12 11 10 10 9 8 7 7 7 6 6 6 5 5 5 5 4 4 3 3 3 3 3 3 2 3 4 4 4 6 3 6 7 7 7 8 9 10 10 10 9 9 9 9 10 12 16 18 18 18 20 19 20 11 14 19 24 24 17 13 13 16 14 15 14 14 14 15 16 16 15 15 13 12 13 12 12 12 12 12 12
14 13 13 12 12 11 11 10 8 7 7 7 7 7 5 5 5 5 6 5 5 5 4 3 3 3 2 2 3 3 5 5 6 6 2 5 5 7 6 6 9 9 9 10 10 10 10 10 11 14 18 19 18 18 18 20 14 11 20 20 20 24 19 11 15 14 14 13 13 14 15 15 16 17 13 13 15 15 14 14 13 13 13 13 13
14 13 12 12 12 11 11 10 8 8 8 7 7 7 6 6 5 4 4 4 4 4 4 3 3 3 2 3 3 3 4 4 6 6 5 4 7 6 8 8 9 7 9 9 9 10 10 11 13 18 18 18 18 17 17 15 9 15 17 18 20 17 11 15 14 16 15 11 12 14 15 15 15 16 16 16 16 15 15 15 13 13 13 13 13
13 13 13 12 11 11 10 9 9 8 8 7 7 6 6 6 5 4 4 3 3 3 3 3 2 2 2 2 3 3 4 5 5 5 2 7 7 3 8 7 9 10 9 9 9 10 12 16 17 17 17 16 15 14 13 14 15 15 16 16 17 12 14 14 15 15 16 14 13 13 14 14 15 15 16 16 16 14 13 14 13 12 14 13 11
14 13 13 12 12 11 11 10 10 9 8 7 7 6 6 5 4 4 4 3 3 2 2 2 2 2 2 2 2 2 3 4 5 6 7 9 9 11 9 4 6 11 12 7 9 12 13 16 17 14 12 12 11 12 12 12 12 14 15 15 15 14 14 14 15 16 16 15 14 14 13 14 15 15 15 15 14 13 14 14 14 14 16 15 13
13 12 12 12 11 11 11 9 8 8 7 7 6 5 4 4 3 4 4 3 2 2 2 1 1 2 2 2 1 2 3 4 6 6 7 8 9 9 9 9 11 11 9 9 11 11 13 14 11 11 9 12 10 11 12 13 12 13 13 13 13 13 14 14 15 15 15 15 15 13 13 13 14 14 15 15 14 14 14 13 12 10 11 12 10
12 12 13 11 10 11 10 10 9 8 7 6 6 5 4 4 4 2 2 2 3 3 2 1 1 1 2 2 2 2 3 4 6 6 6 7 8 8 9 9 9 9 9 10 12 13 13 12 10 9 10 11 11 11 11 12 12 13 13 14 14 14 16 17 16 14 14 14 14 13 13 14 15 15 14 14 14 13 14 14 14 13 11 12 12
12 13 12 11 10 10 9 10 8 7 7 6 6 5 4 3 4 4 5 5 6 5 3 3 2 1 2 3 3 2 3 4 5 4 4 4 3 6 8 8 9 10 11 14 12 13 11 9 9 10 10 9 11 11 12 12 12 13 14 14 13 13 14 14 15 16 15 15 15 16 16 15 14 13 13 14 15 14 14 13 14 12 12 12 13
13 13 11 10 10 9 9 9 8 8 7 6 6 5 8 10 9 3 6 5 7 8 7 5 5 4 3 3 4 4 4 4 4 1 4 6 8 8 9 11 12 11 14 17 11 10 10 7 9 9 9 10 10 10 11 12 12 12 13 13 13 13 14 14 15 16 15 15 15 14 15 14 14 14 13 14 15 14 14 14 14 14 13 14 11
11 10 10 10 10 9 9 8 7 8 7 7 6 6 5 5 9 10 10 7 5 2 3 3 4 4 3 3 4 7 6 5 3 2 4 7 9 10 11 12 14 15 17 9 9 9 8 8 8 7 8 10 9 9 10 10 11 11 11 11 13 12 11 14 15 14 13 14 13 12 14 14 15 13 14 14 16 15 14 13 12 14 13 14 10
10 10 10 9 9 9 9 9 8 7 7 7 7 8 7 8 6 4 10 12 8 7 6 5 4 3 3 3 4 1 6 5 4 4 6 8 9 11 13 13 15 15 17 10 7 7 6 7 7 7 8 8 8 9 9 10 10 11 11 11 12 11 12 12 12 15 14 15 14 12 14 13 14 13 13 12 14 15 15 15 15 14 15 14 14
11 10 10 10 10 9 8 8 8 7 7 7 7 7 8 9 9 8 5 5 8 10 9 9 8 7 6 6 7 8 7 8 9 9 9 9 11 12 13 16 15 17 13 9 7 6 6 8 9 9 9 8 9 9 11 11 11 10 11 11 12 11 14 14 12 14 12 13 13 13 13 12 14 13 12 11 12 15 15 15 14 13 13 14 14
11 11 10 10 11 9 8 8 8 7 7 7 6 6 6 6 7 9 9 8 6 5 7 9 9 8 8 9 9 9 10 9 10 10 11 11 12 13 12 12 17 22 15 8 7 5 8 8 8 9 9 10 10 11 9 11 11 11 11 12 13 13 14 15 15 14 13 13 13 14 13 14 14 13 12 13 11 11 14 13 14 14 14 15 14
10 9 10 10 10 9 8 7 8 7 7 7 7 6 6 5 4 5 8 9 9 9 9 9 11 12 10 9 11 12 11 11 11 11 10 12 13 13 11 10 9 5 2 3 4 7 7 7 8 8 9 9 10 10 10 11 11 11 12 12 13 12 14 13 13 15 14 13 13 14 13 13 15 13 12 13 13 11 13 14 12 13 14 13 13
11 9 9 9 8 9 8 7 7 7 7 7 7 7 6 6 5 5 5 4 4 4 6 10 11 13 18 14 12 12 13 12 12 12 12 12 13 8 6 8 7 5 6 6 5 6 7 7 7 8 8 9 9 10 10 11 11 11 11 12 11 12 13 12 12 13 13 13 12 13 13 13 13 13 12 13 16 13 10 12 13 13 12 12 12
10 9 10 10 8 7 8 8 8 7 7 7 7 6 6 6 6 5 5 5 6 5 4 3 9 9 9 8 10 11 13 12 13 14 13 13 12 6 9 10 8 6 6 6 6 6 7 7 7 7 8 8 9 9 9 10 11 11 11 11 12 12 12 12 12 11 13 13 13 12 12 14 12 13 13 14 15 13 11 11 11 13 12 14 13
10 9 10 10 9 7 7 7 7 6 6 6 6 6 6 6 6 6 5 5 4 4 4 5 4 5 10 11 13 10 9 12 12 9 9 9 6 6 9 10 7 6 5 6 5 6 6 6 6 7 7 7 8 9 9 9 10 10 10 11 10 9 12 10 10 11 10 12 13 13 13 13 13 13 13 13 11 12 11 11 10 10 12 14 12
10 6 5 13 10 9 7 7 8 8 7 7 7 7 7 7 6 6 6 6 6 6 6 5 5 6 6 3 10 10 11 8 7 8 8 7 7 7 6 5 5 5 5 5 5 6 5 6 6 6 6 7 7 8 8 8 9 9 10 9 9 9 11 10 11 11 12 12 12 13 13 13 13 13 13 13 13 12 12 10 12 11 9 11 11
9 8 5 7 9 9 8 8 7 8 8 8 8 7 7 7 6 6 6 6 6 4 6 6 7 6 5 6 7 9 8 5 3 3 3 3 3 6 6 6 5 5 5 5 5 5 5 5 5 6 6 6 7 7 8 8 8 7 7 8 9 10 10 10 10 11 11 11 12 12 13 13 13 12 12 13 13 12 12 11 11 11 10 8 10
10 10 9 7 7 8 8 7 8 8 8 8 8 8 8 7 8 7 7 7 7 5 7 7 7 6 5 8 10 3 4 6 7 6 6 5 5 5 6 6 5 5 5 5 5 5 5 5 5 6 6 6 7 7 7 7 5 6 6 7 7 8 9 9 9 10 11 10 11 12 12 12 12 12 12 13 12 12 12 11 11 11 10 10 8
10 9 10 11 10 8 9 9 8 8 7 8 9 8 8 8 7 8 8 7 7 7 7 7 7 8 7 15 12 9 5 7 7 8 7 6 6 6 6 5 5 5 5 5 5 5 4 4 5 4 4 4 4 4 4 4 4 5 5 6 7 7 8 9 9 9 9 10 10 11 11 11 12 11 11 12 11 11 11 12 11 10 11 11 9
10 9 9 9 10 11 10 9 9 8 9 9 8 8 8 8 8 8 8 8 8 7 5 7 7 8 5 12 13 13 7 7 7 8 8 8 7 6 6 6 6 6 5 5 4 5 3 3 3 3 3 4 6 4 4 4 4 4 4 5 6 6 7 8 8 9 9 9 10 9 8 10 11 10 11 10 11 10 10 10 10 11 10 10 10
9 9 8 9 9 10 10 9 9 9 8 9 8 8 8 9 8 8 7 8 9 9 9 9 8 7 5 8 6 9 7 8 8 8 9 9 8 6 5 5 6 6 5 5 5 5 3 3 3 3 6 6 6 6 5 4 4 4 4 4 4 5 6 6 7 8 8 9 9 9 10 10 9 10 10 10 10 10 10 9 9 10 9 10 9
9 9 8 8 8 9 10 10 9 9 9 8 9 9 9 9 8 9 9 9 9 8 9 8 9 8 9 7 9 9 8 9 8 9 8 8 8 7 5 7 6 6 6 4 5 6 4 4 3 4 4 4 6 6 6 6 6 4 3 3 3 4 4 5 6 6 7 7 8 8 9 9 10 9 10 10 9 9 9 9 9 9 8 8 8
9 9 9 8 8 9 9 10 10 9 9 10 10 10 10 10 10 10 9 9 9 9 8 9 8 9 8 9 9 9 9 8 8 8 8 7 6 6 5 5 5 4 4 4 4 4 4 4 4 4 4 4 4 6 6 6 7 6 5 5 3 2 3 3 4 5 6 6 7 8 8 8 9 8 9 9 9 9 9 8 8 8 8 7 7
9 9 9 9 9 9 9 9 9 10 10 10 10 10 10 10 10 10 10 11 9 9 9 9 9 9 9 10 10 10 9 9 9 6 9 9 8 7 7 6 5 4 4 4 4 4 4 5 5 5 5 5 5 7 7 7 7 6 5 5 3 1 2 3 4 4 4 5 6 6 7 7 8 8 8 9 8 8 8 8 9 8 6 7 7
9 9 9 9 9 9 9 9 9 9 9 10 10 10 10 10 10 10 9 10 11 11 10 10 9 9 10 9 9 9 9 9 9 9 9 8 8 6 8 8 6 6 5 5 5 5 5 5 4 5 5 5 5 5 6 8 7 7 6 6 2 2 4 2 3 6 4 5 6 6 5 6 7 8 8 8 8 8 8 8 9 9 7 6 6
9 9 9 9 9 9 9 9 10 10 10 10 10 10 10 10 10 10 10 10 10 10 10 10 11 11 10 10 10 10 9 9 9 9 9 9 9 10 10 9 6 5 6 6 6 5 5 6 6 6 6 6 5 6 6 8 8 8 7 6 6 8 7 4 1 3 6 5 5 6 5 5 5 6 7 6 7 7 7 7 8 8 7 6 6
10 9 9 9 10 10 9 9 10 10 10 10 10 10 10 10 10 10 10 10 10 10 10 10 10 10 10 10 10 10 10 10 10 9 9 10 10 10 10 10 8 5 6 6 7 7 7 6 6 6 6 6 6 6 6 6 9 8 9 3 10 8 9 6 5 3 3 3 4 5 6 5 5 5 6 6 6 6 7 7 7 7 8 5 5
10 10 9 9 9 9 10 10 10 10 10 10 10 10 10 10 10 10 10 11 11 11 10 10 10 10 10 10 10 10 10 10 10 10 10 10 11 11 11 8 7 6 6 6 7 7 7 7 7 6 6 6 7 7 7 7 6 7 6 9 10 9 8 7 4 6 6 3 3 4 6 5 5 5 6 6 6 6 7 8 7 7 7 6 6
Wind_Direction
107 106 107 105 105 101 100 97 97 94 91 89 88 86 84 83 81 83 79 74 73 67 62 58 55 49 52 47 41 42 40 37 32 32 30 34 33 25 25 23 26 28 22 23 27 21 18 20 20 16 10 2 3 355 355 356 348 339 337 333 328 329 328 319 310 307 305 307 309 308 311 310 304 309 312 313 312 308 305 303 301 294 268 237 240
114 113 110 109 106 105 102 100 95 92 92 91 90 90 88 87 89 82 77 69 67 65 62 56 56 55 49 44 42 37 36 35 31 29 30 28 33 28 25 22 23 25 21 21 25 18 22 21 19 16 8 6 3 358 359 356 346 342 342 337 331 328 325 318 311 308 307 311 309 311 305 308 306 312 308 308 309 310 306 300 293 288 281 243 216
118 117 117 115 109 105 105 101 99 96 95 92 91 90 91 90 89 88 81 75 62 63 64 59 51 51 51 46 40 36 32 31 26 28 27 26 27 28 27 23 24 23 21 24 18 18 22 21 21 15 8 5 7 358 355 350 345 341 337 334 329 323 321 319 315 309 309 307 309 309 312 312 310 312 310 307 305 303 302 303 305 304 300 282 237
123 123 118 116 112 108 104 103 101 101 98 95 92 90 89 85 79 75 75 76 77 64 60 62 59 50 47 46 41 35 30 27 26 23 24 22 25 24 22 24 24 23 19 22 20 22 20 19 21 15 9 6 1 356 354 351 345 342 336 333 327 325 322 320 316 310 307 307 310 311 313 313 311 311 312 308 306 306 306 307 305 303 300 295 273
120 118 118 115 112 107 103 101 100 99 98 96 93 90 84 82 80 81 78 72 66 67 63 63 61 56 49 44 41 35 29 26 23 20 22 21 25 22 20 22 23 22 21 22 26 25 19 18 18 15 9 3 1 356 352 347 345 339 336 333 328 325 323 320 317 312 309 307 308 307 309 308 311 312 314 313 312 309 309 305 303 299 293 288 290
121 122 120 116 113 110 106 105 102 100 97 94 92 91 90 86 86 78 77 80 76 70 65 55 52 55 50 46 40 37 32 28 23 15 11 16 26 23 22 18 23 21 19 25 20 21 20 15 17 14 6 5 359 353 350 346 343 338 334 332 330 328 325 320 317 316 312 307 309 309 309 311 312 309 313 313 314 313 308 305 302 300 305 310 307
126 125 122 119 118 112 108 104 102 98 95 95 96 93 88 86 83 79 76 76 77 76 71 67 61 56 52 47 42 36 32 28 21 11 4 5 19 20 25 17 26 23 19 22 17 16 13 12 15 13 7 4 356 351 348 345 341 335 334 333 331 330 327 324 321 317 314 311 308 306 306 306 307 309 312 313 309 310 310 312 312 317 317 313 309
127 124 122 116 113 113 110 108 102 98 96 94 92 92 92 87 80 75 73 69 68 68 67 71 70 63 54 51 43 39 33 27 18 9 2 358 1 27 18 22 22 23 22 16 19 17 16 6 15 11 5 1 354 347 348 343 335 332 334 333 333 330 328 326 322 320 316 315 313 311 308 306 307 304 308 312 311 309 314 315 308 309 306 301 298
129 127 124 122 116 111 110 106 106 108 105 99 95 91 88 87 88 87 81 73 63 63 66 67 69 69 61 53 48 41 36 26 19 3 360 357 346 10 20 21 18 19 14 15 20 17 14 3 11 11 13 13 342 343 354 345 337 334 334 335 333 330 327 325 324 321 319 317 313 310 308 307 305 307 308 310 308 308 310 306 299 301 301 300 301
130 128 124 121 122 118 114 113 110 109 109 106 103 100 97 92 89 82 74 72 71 68 66 64 68 65 61 56 53 44 34 28 359 356 356 357 342 343 8 20 15 16 15 15 16 17 13 6 10 15 14 3 354 20 357 337 333 331 328 323 322 320 324 326 325 324 321 317 314 313 310 305 305 305 304 304 303 302 303 304 302 303 302 298 296
130 129 127 127 124 122 118 114 117 112 107 108 110 105 95 91 84 78 76 75 75 73 70 71 67 65 63 58 53 46 36 17 358 359 351 351 347 332 348 16 12 14 16 13 14 20 9 2 1 2 7 354 360 8 347 337 331 326 311 302 294 295 316 324 322 322 319 316 314 311 305 304 303 305 303 303 302 302 302 304 302 300 298 299 297
131 129 127 129 128 124 122 121 118 117 118 113 110 105 107 101 92 87 89 84 80 77 73 73 76 72 65 62 54 47 38 12 3 357 352 346 344 332 323 14 14 13 15 11 18 21 12 4 359 358 4 354 5 356 344 338 334 319 305 298 305 312 313 314 312 315 321 319 313 309 307 302 304 305 301 302 303 301 298 297 293 291 289 285 281
132 131 134 132 126 126 126 123 120 119 116 113 111 112 106 103 97 94 86 84 82 75 72 74 79 80 75 64 56 44 35 12 358 359 352 348 337 332 334 16 10 12 14 4 20 16 11 9 1 356 354 0 11 357 346 338 334 318 318 334 335 336 327 313 302 307 324 317 314 310 308 306 304 300 302 302 303 297 296 290 288 287 285 281 279
134 135 133 130 130 130 128 125 121 118 119 119 118 113 108 101 104 102 101 93 85 81 77 76 76 77 74 73 62 46 34 6 0 359 352 349 335 330 353 4 14 12 6 1 9 13 19 8 2 356 355 359 10 357 346 342 334 329 341 341 339 336 330 324 323 326 324 316 313 311 310 308 302 301 303 302 302 299 296 289 288 285 281 277 282
137 135 134 133 132 130 129 128 125 124 121 119 117 113 111 116 115 112 107 101 96 92 87 79 71 72 75 74 68 54 38 12 4 358 354 347 339 315 5 351 17 1 7 356 6 6 31 9 3 357 354 358 8 350 341 339 332 328 339 343 340 339 336 334 336 334 325 318 316 311 310 308 303 301 299 299 298 297 293 288 285 282 280 281 278
137 136 135 136 134 133 130 127 126 126 124 122 120 115 115 113 107 109 107 103 98 96 87 80 78 73 75 74 70 60 47 25 6 0 353 350 335 318 16 354 8 1 12 356 354 19 30 5 360 360 353 354 1 344 336 331 331 333 336 341 340 339 338 340 340 326 305 299 301 305 304 299 293 289 289 287 288 287 288 284 280 275 276 276 274
138 139 139 136 135 134 133 132 129 128 126 123 118 117 119 121 119 115 111 107 103 95 89 83 75 71 62 64 72 64 51 29 11 1 355 352 344 347 10 360 2 360 17 359 349 22 41 7 9 3 353 354 348 337 332 333 332 335 331 335 337 337 338 340 332 316 309 306 305 303 300 296 295 294 292 287 284 288 287 284 280 277 272 272 274
142 142 139 137 137 135 133 131 130 129 129 124 120 121 120 117 118 122 116 118 112 110 108 101 93 77 66 55 40 69 63 45 19 5 357 354 345 344 13 3 357 350 13 6 356 6 94 71 39 24 3 350 338 331 331 332 333 332 332 334 337 334 332 334 329 326 333 327 323 320 315 313 308 304 299 300 301 299 288 286 288 284 274 272 276
144 142 139 138 135 134 133 131 130 128 123 122 124 124 120 116 115 117 116 119 122 121 112 109 108 99 85 75 28 38 70 65 34 10 1 356 352 348 8 8 358 352 347 3 346 8 356 83 70 36 7 340 333 331 326 328 325 326 327 334 337 331 332 326 322 327 336 339 334 327 319 318 319 315 313 306 300 301 295 288 287 280 279 280 279
141 139 138 137 135 132 129 128 126 126 125 127 127 123 125 132 136 139 144 132 120 116 113 100 98 101 110 100 76 44 48 63 52 15 7 355 356 344 8 9 356 348 337 352 344 354 355 349 12 39 359 337 329 323 321 319 319 316 319 335 333 323 322 317 308 324 335 335 326 324 317 314 319 318 315 313 311 307 298 287 283 282 279 277 271
140 139 136 134 133 130 129 129 127 126 126 126 126 128 126 126 131 126 112 100 100 103 116 125 117 112 105 122 122 90 55 52 94 41 8 354 348 352 4 9 353 341 331 336 349 346 345 350 340 9 345 329 321 319 313 314 312 309 319 333 316 306 302 304 299 326 330 327 325 322 321 321 321 318 317 315 309 305 300 292 286 280 279 277 273
141 138 139 138 134 131 129 128 128 126 127 130 134 128 129 134 136 134 118 120 131 133 138 121 123 129 141 135 111 154 121 23 47 109 18 333 328 333 356 6 354 331 328 334 341 341 340 340 342 343 328 319 315 311 308 306 309 299 321 313 305 301 305 290 314 335 333 327 323 321 324 325 326 324 320 317 315 311 311 304 297 291 278 265 262
143 143 139 135 132 131 130 131 131 131 134 138 135 137 142 139 129 121 131 134 131 132 123 132 139 130 128 109 102 90 138 137 47 40 60 308 293 295 292 297 318 317 334 326 326 335 336 334 336 327 314 309 307 304 301 302 298 314 313 305 300 302 299 329 336 332 333 325 320 322 325 327 328 324 318 319 323 321 318 312 308 305 296 286 272
145 139 136 135 136 136 138 137 135 137 141 143 143 143 142 148 163 163 174 167 152 156 143 153 143 132 123 102 92 72 55 108 135 67 20 346 328 280 273 276 277 310 317 313 324 333 330 327 314 304 299 298 299 299 298 296 295 302 301 307 302 297 333 338 337 338 335 328 324 326 327 327 326 325 326 324 322 321 319 316 316 316 316 309 288
143 140 142 140 141 143 142 140 142 145 149 153 149 146 153 163 148 159 173 156 148 137 140 128 128 115 104 82 81 64 57 44 29 76 57 2 340 302 278 271 271 279 300 323 331 333 313 297 292 290 287 289 298 311 323 324 324 314 311 313 314 350 345 342 338 338 336 334 330 326 326 327 325 320 320 322 320 318 322 328 328 334 334 331 321
145 148 145 145 149 147 146 147 150 151 161 156 156 156 163 167 155 159 154 144 139 138 126 123 106 83 82 81 68 80 64 42 29 20 13 6 2 350 333 290 292 303 296 302 334 315 312 305 290 285 302 320 324 337 331 325 316 323 325 335 343 345 350 341 339 336 340 335 332 328 325 323 326 325 323 326 331 330 333 335 338 347 351 347 341
148 148 146 151 154 152 151 155 153 161 168 168 161 160 162 136 144 153 150 134 126 137 134 142 103 88 90 59 75 70 62 55 29 16 14 3 358 351 352 356 347 335 345 354 341 334 321 303 300 300 287 298 310 323 327 326 335 349 344 343 343 352 347 345 339 337 335 337 332 330 327 326 322 327 336 339 342 342 345 340 343 343 340 342 343
152 151 154 156 157 155 160 140 158 164 173 168 162 164 157 169 163 146 110 135 163 155 129 71 65 57 58 49 27 39 55 52 37 15 7 359 348 346 347 348 352 348 344 342 335 323 311 302 319 338 341 342 345 344 347 343 344 347 347 348 347 351 346 337 338 337 339 335 331 327 333 334 336 336 338 343 347 349 352 350 353 352 351 341 357
155 156 159 159 158 161 152 163 176 162 167 174 165 158 150 172 141 113 52 28 22 13 10 101 82 31 14 42 8 31 27 42 36 37 344 334 316 324 337 335 336 327 322 319 319 315 308 333 337 339 344 344 347 345 344 342 342 342 342 345 341 347 348 347 346 341 339 337 335 337 338 337 336 342 344 348 353 354 353 355 357 358 356 6 5
160 159 163 160 159 161 159 176 178 164 171 174 159 105 65 68 30 58 115 77 66 51 35 40 19 353 344 58 58 6 11 33 90 326 317 312 304 294 284 290 291 295 297 306 309 303 313 339 342 341 342 346 346 344 343 342 342 343 343 344 344 348 347 348 347 340 339 336 337 341 340 335 342 350 354 353 353 358 357 357 358 1 8 6 353
159 163 167 165 162 166 164 177 178 171 173 170 164 147 158 109 90 84 94 120 121 89 61 62 30 15 348 336 96 127 107 142 213 252 298 295 301 298 299 297 298 297 300 319 318 304 318 341 342 343 344 347 346 345 343 342 344 342 345 346 344 346 347 350 345 341 341 337 338 343 338 342 348 352 357 359 358 357 1 2 4 7 12 10 359
166 170 168 162 164 180 170 175 179 179 172 179 172 170 165 162 152 131 144 148 163 173 189 196 208 222 248 269 296 206 153 179 174 271 287 294 295 297 294 295 292 295 294 308 293 295 337 340 344 345 345 347 345 348 343 343 345 344 346 345 345 348 349 351 342 346 344 340 341 349 343 343 350 351 358 2 5 2 5 5 8 11 12 15 18
169 170 174 163 168 196 184 171 180 183 182 181 191 187 187 176 172 168 192 204 184 188 199 205 205 211 213 224 226 257 278 294 294 294 292 294 294 292 293 292 289 285 294 296 286 333 339 344 345 347 347 350 347 349 345 344 347 345 349 347 345 349 350 348 342 349 344 339 341 351 344 347 352 349 360 2 12 11 8 11 9 13 14 18 20
173 175 181 164 174 184 195 173 182 184 189 186 196 190 206 204 182 167 172 181 203 242 238 233 230 225 230 225 224 232 240 252 260 277 285 282 283 286 291 294 291 283 267 264 276 332 340 344 345 348 347 348 349 347 347 346 348 347 349 348 346 348 349 346 349 348 346 343 351 351 345 350 0 350 1 1 10 16 14 15 13 14 18 20 20
183 171 156 173 177 180 195 188 181 187 188 190 193 196 198 201 224 183 186 183 192 199 200 205 211 211 219 220 228 226 234 238 248 256 266 276 276 279 298 295 289 293 253 234 320 348 334 343 346 348 349 348 351 346 348 349 348 349 352 347 348 349 350 348 349 348 346 345 350 352 347 348 1 354 3 5 3 16 19 16 15 16 17 18 20
186 178 167 191 195 178 186 193 189 188 190 193 194 195 198 189 202 203 218 239 241 214 202 188 187 197 214 226 216 213 221 232 237 240 247 258 266 284 297 289 299 326 329 342 345 344 335 342 346 348 349 349 349 347 350 348 350 349 352 346 349 350 351 346 348 349 344 346 348 347 348 351 358 350 3 12 6 7 22 22 20 19 19 22 24
191 179 178 188 205 190 186 190 192 191 190 196 196 195 200 195 197 211 207 208 210 225 254 185 170 179 196 223 228 222 218 222 227 234 238 244 258 269 269 275 293 319 327 333 345 337 335 344 346 348 346 349 348 349 348 349 352 350 349 347 348 350 350 342 347 349 346 346 348 350 351 351 352 1 358 12 13 7 10 19 23 23 23 19 21
193 188 181 182 197 205 198 195 184 160 180 202 203 205 200 203 200 218 229 224 202 215 227 236 238 193 192 206 195 204 214 225 238 256 257 255 253 251 257 261 287 308 330 324 339 327 333 336 345 344 343 348 349 347 350 349 352 350 348 348 346 349 339 336 348 348 347 347 351 351 352 353 353 1 359 10 11 5 7 11 15 23 25 24 24
196 186 165 166 180 199 201 204 184 183 190 198 214 210 207 207 207 211 216 222 217 224 235 253 239 229 247 183 168 197 207 217 216 227 227 226 230 236 256 289 300 305 318 315 323 322 333 328 340 339 341 347 344 346 347 347 352 350 347 347 344 348 346 349 348 349 351 349 351 351 352 355 353 360 359 5 13 9 3 14 16 16 28 30 28
197 184 151 168 182 202 210 203 194 185 195 200 211 213 206 214 224 219 221 235 232 225 227 229 233 248 241 233 208 191 212 241 282 290 287 277 276 269 269 278 294 304 308 310 308 314 324 328 334 337 335 344 341 341 345 343 352 345 346 350 347 348 345 348 348 348 348 347 350 350 353 353 352 358 359 2 6 13 3 6 19 19 19 30 34
196 194 157 166 205 193 214 217 203 200 194 202 213 215 221 210 216 226 233 228 229 235 239 244 253 252 247 101 82 70 270 280 274 276 275 269 266 269 272 271 281 289 287 293 303 310 316 321 328 329 332 338 331 331 337 336 342 343 344 346 348 348 345 349 349 349 344 346 350 349 351 351 352 359 360 357 358 9 12 6 13 21 22 26 29
193 195 168 176 191 214 204 209 213 204 212 202 209 222 220 218 220 226 229 234 242 244 243 242 237 250 159 143 152 155 230 262 257 258 260 267 267 265 261 266 270 274 283 285 297 303 301 305 314 315 319 325 319 326 329 325 335 336 339 343 346 348 347 350 349 346 344 347 348 348 345 349 348 1 358 347 359 4 13 10 8 16 26 22 21
192 200 179 180 190 200 212 203 212 210 207 214 213 213 229 234 225 221 227 232 245 239 244 247 253 258 201 169 161 171 216 242 252 254 257 261 262 274 272 264 259 261 265 271 278 283 289 293 304 302 306 313 317 322 323 324 328 328 333 339 343 347 348 349 347 346 347 347 345 340 340 350 351 359 1 354 359 360 8 8 8 10 24 28 20
194 203 197 183 189 192 204 210 205 213 216 213 221 227 219 226 239 246 245 230 222 224 240 245 250 253 232 163 163 178 228 245 249 247 244 243 244 247 260 273 272 267 268 274 279 278 286 289 289 302 307 301 303 311 311 314 317 319 327 333 339 345 348 350 347 345 345 344 341 342 351 351 350 357 1 353 356 358 1 2 9 4 10 23 25
200 200 203 194 190 193 196 209 214 209 213 218 219 222 226 235 234 234 233 237 239 236 234 231 235 235 241 209 187 208 234 243 238 244 252 256 254 250 247 253 262 265 262 263 269 276 274 277 283 277 280 285 290 301 305 307 309 308 318 324 330 344 351 350 348 337 341 343 341 343 351 352 354 355 0 353 357 357 358 356 1 2 5 10 15
204 202 202 206 197 198 202 201 210 218 212 214 220 222 222 222 229 237 241 244 244 243 238 235 234 238 240 243 237 229 233 238 241 237 237 238 242 246 250 249 254 260 264 264 264 267 269 271 270 283 289 292 292 287 295 300 298 298 307 307 322 347 354 353 345 331 342 346 339 339 347 348 354 354 359 353 354 359 350 352 348 359 5 3 3
201 209 202 207 210 205 208 211 206 210 218 216 218 222 227 227 230 228 227 233 242 241 239 244 246 240 235 233 233 237 244 247 247 248 251 254 256 257 259 256 249 245 248 255 254 252 247 245 249 252 254 258 268 275 280 286 289 291 294 300 296 328 20 2 336 328 343 343 334 330 342 344 350 347 355 355 351 356 348 354 346 336 358 4 359
201 206 210 208 212 216 211 212 218 213 220 221 223 225 227 233 236 237 242 231 222 231 240 244 244 245 246 248 245 243 240 239 240 243 244 246 248 247 247 244 242 247 252 254 254 260 262 262 258 250 244 241 247 257 267 268 275 279 284 285 302 84 83 68 330 324 342 336 319 320 329 345 347 343 346 351 350 353 353 353 347 339 345 6 2
212 207 207 212 215 217 222 218 218 220 220 226 226 224 229 232 237 242 240 239 242 237 232 231 236 241 245 247 250 251 248 245 244 243 243 241 242 246 250 249 250 251 249 252 253 249 242 241 238 242 247 249 247 248 251 259 262 272 273 274 122 128 148 148 274 315 321 304 315 324 322 336 343 338 336 344 347 350 350 347 345 336 333 358 5
218 215 218 212 215 222 225 229 226 223 223 224 226 231 228 231 235 238 240 245 243 241 241 241 242 242 241 241 239 242 244 246 246 244 244 246 249 251 259 271 271 251 249 239 233 240 248 250 244 238 235 237 239 244 248 250 253 252 261 223 139 162 155 166 204 253 275 302 317 313 310 324 333 334 332 337 340 342 345 345 340 336 335 350 3
215 220 221 223 224 221 223 227 228 231 228 226 225 228 230 234 232 230 233 236 241 244 244 244 244 242 244 246 249 250 250 248 248 247 252 254 255 256 258 252 233 231 242 243 232 230 237 241 245 238 228 223 227 233 238 243 246 247 235 149 166 169 166 172 204 201 207 258 286 296 301 310 317 323 325 329 332 338 336 328 333 332 340 346 355